Weather in Priuralskiy

Russia / Komi Republic     62°37′30″N   57°27′52″E
temp.,
°C
wind,
m/s
gust,
m/s
humid.,
%
clouds,
%
prec.,
mm/h
press.,
hPa
HPBL,
m
15 may, sat
sat1500:00+15s128489 1.0 101426
03:00+14se1189100 1.0 101319
06:00+17s3475100 0.1 1013348
09:00+22wsw355399 0.1 10121052
12:00+24w583199 0.0 10122700
15:00+24wnw583172 0.0 10122634
18:00+21w4939100 0.0 1012644
21:00+18w385195 0.0 1012391
16 may, sun
sun1600:00+12nnw11869 0.0 101327
03:00+12n239097 0.0 101373
06:00+15ene1171100 0.0 1014297
09:00+18sse1256100 0.0 1014775
12:00+22ssw254696 0.0 10121658
15:00+20ese246416 0.6 1010164
18:00+19sw3976100 3.0 1009671
21:00+15sse37902 7.1 1009163
17 may, mon
mon1700:00+13e239711 3.8 100959
03:00+12s249756 4.4 100999
06:00+17sw487612 0.3 1008482
09:00+20wsw585943 1.4 10091539
12:00+21wsw5854100 4.2 10091559
15:00+18w5970100 8.4 10101067
18:00+17w497793 2.6 1010869
21:00+14w3118452 3.9 1011462
18 may, tue
tue1800:00+13w4887100 0.5 1011595
03:00+12w4991100 1.8 1012610
06:00+12nw369399 0.6 1014553
09:00+12nnw3583100 0.6 1017655
12:00+13n3474100 0.1 1018880
15:00+13nne3373100 0.1 1020772
18:00+13ene237635 0.0 1021587
21:00+9ese24890 0.0 102286
19 may, wed
wed1900:00+7ese22916 0.0 102358
03:00+6se2692100 0.0 1023160
06:00+10se247397 0.0 1023314
09:00+16sse345683 0.0 1022820
12:00+21s344094 0.0 10201371
15:00+23ssw353366 0.0 10181628
18:00+21s25445 0.0 1017152
21:00+16s27665 0.0 1017120